{"data":{"norad_id":65536,"intl_designator":"2025-200S","name":"STARLINK-35044","alt_names":[],"object_type":"PAYLOAD","status":"ACTIVE","operator":null,"country":"US","launch_date":"2025-09-06","launch_site_code":"AFWTR","launch_vehicle":null,"mission":null,"orbit_class":"UNKNOWN","rcs_meters":null,"size_class":null,"mass_kg":null,"dimensions":null,"purposes":["comms"],"wikipedia_slug":null,"has_3d_model":false,"image_url":null,"decayed_at":null,"tle_current":{"epoch":"2026-09-20T22:26:15.386784Z","epoch_age_seconds":74404,"freshness":"FRESH","line1":"1 65536U 25200S   26263.93490031  .00017525  00000+0  54385-3 0  9999","line2":"2 65536  97.2856 330.3985 0000618  81.9185 278.2128 15.33449535 58715","mean_motion":15.33449535,"eccentricity":6.18e-5,"inclination_deg":97.2856,"raan_deg":330.3985,"arg_perigee_deg":81.9185,"mean_anomaly_deg":278.2128,"bstar":0.00054385,"rev_number":5871,"period_min":93.905926940074,"perigee_km":465.10674294111,"apogee_km":465.95262014295,"semimajor_km":6843.666681542,"source":"CELESTRAK","updated_at":"2026-09-21T09:00:35.651075Z"}}}